COSMOS 1275 DEB, 12758

Orbit data source: Space-Track

COSMOS 1275 DEB, 12758 is space debris in LEO originally from a launch on Thu, 04 Jun 1981 UTC launched from the Plesetsk Missile And Space Complex (PKMTR). Debris objects in space refer to the collection of defunct objects orbiting the Earth. Examples of debris include non-operational satellites, rocket bodies, and fragments generated from explosions, collisions, or faulty payload assembly.

Loading next visibility...
Identifier
12758, 1981-053DB
Orbit
LEO
Country
Flag of CISCIS
Related business
Manufacturer
Unknown
Mission
Spacecraft
Bus & Motor
Unknown
Mass
Unknown
Launch date (UTC)
1981-06-04 (45 years ago)
Launch vehicle
Unknown
Launch site
Plesetsk Missile And Space Complex (PKMTR)
Object type
Payload
Rocket body
Debris
Shape & HBR
Unknown shape, 0.1 m
Radar Cross Section
Medium (>0.1 m² and <1 m²)

Expand to show TLE details & history
Last TLE update: 2 days ago

TLE from 2 days ago
0 COSMOS 1275 DEB
1 12758U 81053DB  26171.22677689  .00000468  00000-0  41470-3 0  9991
2 12758  82.8620  83.8485 0055190 191.7911 322.2101 13.82301914252086
Epoch: 2026-06-20T05:26Z
TLE epoch observation values (Epoch: 2026-06-20T05:26:33.523Z)
Latitude
26.20232°
Longitude
-89.75031°
Altitude
927.01 km
Speed
7.407 km/s
True Right ascension
17h 21m 20s
True Declination
26° 04' 10"
Sunlit
Object was in full shadow at epoch
Visualization orbit readout
Latitude
Unknown
Longitude
Unknown
Altitude
Unknown
Speed
Unknown
Apparent Right ascension
Unknown
Apparent Declination
Unknown
Sunlit
N/A
Visualization observer readout
Local Sidereal Time
16:06:10
Azimuth
Unknown
Elevation
Unknown
Doppler factor
Unknown
Orbital elements
Apogee altitude
993.335 km
Perigee altitude
912.415 km
Semi-major axis
7,331.012 km
Eccentricity
0.00552
Inclination
82.862°
RAAN
83.8485°
Arg. of periapsis
191.7911°
True anomaly
321.82045°
Mean anomaly
322.2101°
Eccentric anomaly
322.01549°
Mean motion
3.45778 °/min
Orbital period
104.11 mins
BSTAR
0.0004147
Loading maneuver chart data...
Computing Atmospheric mass density...
Loading historical data...
Loading historical data...
Loading historical data...
Loading historical data...
Loading historical data...
Loading historical data...
Loading historical data...

Documentation

Showing up to 5 results
|